This demonstration page uses our WeatherBlox Daily Observations layout. Learn more.

Left ArrowRight Arrow

Hourly Observations for June 20, 2015

Temp ( °F °C ) Dew Point ( °F °C ) Humidity (%) Winds ( mph kmh ) Pressure ( in mb ) Visibility ( mi km ) Precip ( " mm )
12:59 am 00:59 Partly Cloudy 80 26.7 70 21.1 71 71 S 5 7 30.01 1016 10 16 0.00 0.00
1:59 am 01:59 Partly Cloudy 80 26.7 72 22.2 76 76 S 8 13 30.00 1016 10 16 0.00 0.00
2:59 am 02:59 Partly Cloudy 78 25.6 73 22.8 85 85 SW 8 13 29.99 1016 10 16 0.00 0.00
3:59 am 03:59 Mostly Cloudy 78 25.6 72 22.2 82 82 SW 12 19 29.99 1016 10 16 0.00 0.00
4:59 am 04:59 Mostly Cloudy 77 25 71 21.7 82 82 SW 9 15 30.00 1016 10 16 0.00 0.00
5:59 am 05:59 Mostly Cloudy 76 24.4 70 21.1 82 82 WSW 8 13 30.00 1016 10 16 0.00 0.00
6:59 am 06:59 Mostly Cloudy 77 25 71 21.7 82 82 W 6 9 30.02 1017 8 13 0.00 0.00
7:59 am 07:59 Mostly Cloudy 79 26.1 72 22.2 79 79 W 8 13 30.03 1017 8 13 0.00 0.00
8:59 am 08:59 Mostly Cloudy 81 27.2 71 21.7 72 72 W 8 13 30.04 1017 9 14 0.00 0.00
9:59 am 09:59 Cloudy 82 27.8 70 21.1 67 67 WSW 7 11 30.03 1017 10 16 0.00 0.00
10:59 am 10:59 Mostly Cloudy 85 29.4 71 21.7 63 63 WNW 5 7 30.02 1017 9 14 0.00 0.00
11:59 am 11:59 Mostly Cloudy 88 31.1 69 20.6 54 54 SSE 3 6 30.01 1016 10 16 0.00 0.00
12:59 pm 12:59 Mostly Cloudy 88 31.1 72 22.2 59 59 NE 9 15 30.01 1016 9 14 0.00 0.00
1:59 pm 13:59 Mostly Cloudy 90 32.2 74 23.3 59 59 ENE 10 17 29.99 1016 9 14 0.00 0.00
2:59 pm 14:59 Mostly Cloudy 92 33.3 71 21.7 51 51 SSW 9 15 29.96 1015 9 14 0.00 0.00
3:59 pm 15:59 Cloudy 88 31.1 75 23.9 66 66 SE 14 22 29.95 1014 9 14 0.00 0.00
4:59 pm 16:59 Mostly Cloudy 91 32.8 74 23.3 57 57 SSE 10 17 29.93 1013 8 13 0.00 0.00
5:59 pm 17:59 Mostly Cloudy 90 32.2 74 23.3 59 59 S 17 28 29.91 1013 8 13 0.00 0.00
6:59 pm 18:59 Mostly Cloudy 89 31.7 74 23.3 61 61 S 10 17 29.88 1012 7 11 0.00 0.00
7:59 pm 19:59 Mostly Cloudy 86 30 75 23.9 70 70 S 14 22 29.88 1012 7 11 0.00 0.00
8:59 pm 20:59 Mostly Cloudy 85 29.4 72 22.2 65 65 S 15 24 29.88 1012 10 16 0.00 0.00
9:59 pm 21:59 Mostly Cloudy 76 24.4 65 18.3 69 69 S 15 24 29.94 1014 10 16 0.00 0.00
10:59 pm 22:59 Mostly Cloudy 82 27.8 75 23.9 79 79 S 10 17 29.85 1011 9 14 0.00 0.00
11:59 pm 23:59 Mostly Cloudy with Thunderstorms 76 24.4 72 22.2 88 88 WSW 24 39 29.93 1013 2 3 0.26 6.60

Powered by AerisWeather